Regional Weather Roundup
Issued by NWS

Home | Current Version | Previous Version | Graphics & Text | Print | Product List | Glossary On
Versions: 1 2 3 4 5 6 7 8 9 10 11 12 13 14 15 16 17 18 19 20 21 22 23 24 25 26 27 28 29 30 31 32 33 34 35 36 37 38 39 40 41 42 43 44 45 46 47 48 49 50
000
ASUS43 KLSX 222307
RWRMO

WEATHER SUMMARY FOR MISSOURI
NATIONAL WEATHER SERVICE SPRINGFIELD MO
600 PM CDT TUE JUL 22 2014

NOTE: "FAIR" INDICATES FEW OR NO CLOUDS BELOW 12,000 FEET WITH NO
       SIGNIFICANT WEATHER AND/OR OBSTRUCTIONS TO VISIBILITY.
       CURRENT SKY AND/OR WEATHER CONDITIONS ARE NOT AVAILABLE FOR
       CHILLICOTHE AND FARMINGTON.

MOZ001>031-035>038-043-044-053-054-230000-
...NORTHERN AND WESTERN MISSOURI...

CITY           SKY/WX    TMP DP  RH WIND       PRES   REMARKS
KANSAS CTY INT MOSUNNY   94  77  57 SW6       30.01R HX 108
KANSAS C DTWN  MOSUNNY   98  72  42 W10       29.98R HX 107
LEE`S SUMMIT   PTSUNNY   94  76  55 SW5       30.01R HX 106
ST JOSEPH      SUNNY     94  79  61 N3        30.00S HX 111
CHILLICOTHE      N/A     93  79  63 VRB3      29.99S HX 110
KIRKSVILLE     PTSUNNY   91  79  67 VRB5      30.01S HX 107

$$
MOZ066>068-077>081-088>096-101>105-230000-
...SOUTHWEST MISSOURI...

CITY           SKY/WX    TMP DP  RH WIND       PRES   REMARKS
SPRINGFIELD    MOSUNNY   92  74  55 VRB5      30.05S HX 101
JOPLIN         MOSUNNY   94  74  52 SW9G21    30.04F HX 104

$$
MOZ032>034-039>042-045>050-055>058-069>072-230000-
...CENTRAL MISSOURI...

CITY           SKY/WX    TMP DP  RH WIND       PRES   REMARKS
COLUMBIA       MOSUNNY   92  77  61 SW8       29.99S HX 105
JEFFERSON CITY MOSUNNY   93  76  57 SW7       29.97S HX 105
ROLLA          MOSUNNY   92  72  51 S8        30.01S HX  99
SEDALIA        MOSUNNY   93  78  61 SW7       30.00F HX 108
WHITEMAN AFB   PTSUNNY   92  79  64 W7        29.99F HX 109
OSAGE BEACH    MOSUNNY   93  75  55 W8        30.00S HX 104

$$
MOZ051-052-059>065-230000-
...EAST CENTRAL MISSOURI...

CITY           SKY/WX    TMP DP  RH WIND       PRES   REMARKS
ST LOUIS INTL  PTSUNNY   91  72  53 S9        30.01R HX  98
SPIRIT OF STL  PTSUNNY   90  73  57 SE7       29.99S HX  98
ST CHARLES     PTSUNNY   90  74  59 CALM      29.99S HX  99

$$
MOZ072>076-082>087-097>100-106>115-230000-
...SOUTH CENTRAL AND SOUTHEAST MISSOURI...

CITY           SKY/WX    TMP DP  RH WIND       PRES   REMARKS
CAPE GIRARDEAU SUNNY     87  71  58 SW8       30.02F HX  93
FARMINGTON     PTSUNNY   82  70  65 S8        30.06S
POPLAR BLUFF   SUNNY     86  66  51 S8        30.02F
WEST PLAINS    MOSUNNY   87  71  58 S8        30.07F HX  93

$$



USA.gov is the U.S. government's official web portal to all federal, state and local government web resources and services.